This is the latest recevied weather packets stored in our database for station/object WA3NOA-2. If no packets are shown the sender has not sent any weather packets the latest 1 day(s).
| Time | Temp. | Humidity | Pressure | Rain* | Wind** | Luminosity | Snow |
|---|---|---|---|---|---|---|---|
| 1778011387 | 26.67° C | 35% | 1002.4 hPa | 0 mm | 0 m/s | - | - |
| 1778011326 | 27.22° C | 36% | 1002.5 hPa | 0 mm | 2.68 m/s, 267° | - | - |
| 1778011026 | 27.22° C | 37% | 1002.6 hPa | 0 mm | 0 m/s | - | - |
| 1778010726 | 27.22° C | 36% | 1002.6 hPa | 0 mm | 4.02 m/s, 259° | - | - |
| 1778010487 | 27.22° C | 37% | 1002.6 hPa | 0 mm | 3.13 m/s, 283° | - | - |
| 1778010426 | 27.22° C | 37% | 1002.5 hPa | 0 mm | 0.45 m/s, 275° | - | - |
| 1778010126 | 26.67° C | 36% | 1002.5 hPa | 0 mm | 5.36 m/s, 268° | - | - |
| 1778009826 | 27.22° C | 37% | 1002.6 hPa | 0 mm | 4.47 m/s, 280° | - | - |
| 1778009587 | 27.22° C | 37% | 1002.6 hPa | 0 mm | 1.79 m/s, 259° | - | - |
| 1778009526 | 27.22° C | 38% | 1002.5 hPa | 0 mm | 1.79 m/s, 265° | - | - |
| 1778009226 | 27.22° C | 35% | 1002.6 hPa | 0 mm | 1.79 m/s, 59° | - | - |
| 1778008926 | 27.22° C | 35% | 1002.6 hPa | 0 mm | 2.68 m/s, 280° | - | - |
| 1778008687 | 27.78° C | 35% | 1002.8 hPa | 0 mm | 3.13 m/s, 267° | - | - |
| 1778008627 | 27.78° C | 36% | 1002.7 hPa | 0 mm | 4.47 m/s, 295° | - | - |
| 1778008327 | 27.22° C | 38% | 1002.6 hPa | 0 mm | 0.45 m/s, 252° | - | - |
| 1778008027 | 27.22° C | 35% | 1002.7 hPa | 0 mm | 1.79 m/s, 275° | - | - |
| 1778007788 | 27.22° C | 38% | 1002.7 hPa | 0 mm | 4.47 m/s, 250° | - | - |
| 1778007727 | 27.22° C | 36% | 1002.8 hPa | 0 mm | 0.89 m/s, 290° | - | - |
| 1778007427 | 27.22° C | 37% | 1002.8 hPa | 0 mm | 1.34 m/s, 222° | - | - |
| 1778007127 | 27.22° C | 38% | 1002.8 hPa | 0 mm | 1.34 m/s, 242° | - | - |
| 1778006888 | 27.22° C | 38% | 1003 hPa | 0 mm | 3.13 m/s, 250° | - | - |
| 1778006827 | 27.22° C | 39% | 1003.1 hPa | 0 mm | 4.02 m/s, 252° | - | - |
| 1778006527 | 26.67° C | 37% | 1003.2 hPa | 0 mm | 1.34 m/s, 263° | - | - |
| 1778006227 | 26.67° C | 38% | 1003.2 hPa | 0 mm | 0.89 m/s, 315° | - | - |
| 1778005988 | 26.67° C | 38% | 1003.2 hPa | 0 mm | 1.34 m/s, 236° | - | - |
* Rain latest hour (hover to see other rain measurements)
** Current wind speed in m/s (hover to see current wind gust speed)